Terug naar catalogus

STARLINK-34001

ActiefCommunicatieVLEO
NORAD 64272·PAYLOAD·🇺🇸 United States

Gelanceerd Jun 4, 2025 vanaf Vandenberg Space Force Base

Loading…

Volgende Passages (komende 24 uur)

TLE

VersSource: CelesTrak SupGP

Epoch: Sep 15, 2026, 03:34 UTC

1 64272C 25120S   26258.14909722  .00036894  00000+0  10898-2 0  2583
2 64272  53.1598 314.5308 0001240  89.6248 264.0509 15.34380440    11

Volg STARLINK-34001 in realtime met AllMySat

Download on the App Store